Powrót do katalogu

PEGASUS DEB

AktywnyPO
NORAD 24239·DEBRIS·🇺🇸 United States

Wystrzelony May 19, 1994 z Vandenberg Space Force Base

Loading…

Następne Przeloty (najbliższe 24 godziny)

TLE

ŚwieżeSource: Space-Track

Epoka: Sep 14, 2026, 04:22 UTC

1 24239U 94029LN  26257.18258380  .00003293  00000-0  34906-3 0  9993
2 24239  81.5075  65.8258 0136029 282.6880  75.9154 14.82225256589445

Śledź PEGASUS DEB w czasie rzeczywistym z AllMySat

Download on the App Store